Regional Weather Roundup
Issued by NWS Newport/Morehead, NC

Current Version | Previous Version | Text Only | Print | Product List | Glossary On
Versions: 1 2 3 4 5 6 7 8 9 10 11 12 13 14 15 16 17 18 19 20 21 22 23 24 25 26 27 28 29 30 31 32 33 34 35 36 37 38 39 40 41 42 43 44 45 46 47 48 49 50
000 ASUS42 KMHX 182210 RWRMHX WEATHER ROUNDUP FOR EASTERN NORTH CAROLINA NATIONAL WEATHER SERVICE NEWPORT/MOREHEAD CITY NC 500 PM EST THU DEC 18 2014 NOTE: "FAIR" INDICATES FEW OR NO CLOUDS BELOW 12,000 FEET WITH NO SIGNIFICANT WEATHER AND/OR OBSTRUCTIONS TO VISIBILITY NCZ015>017-031-032-045>047-102-103-182300- NORTH COAST CITY SKY/WX TMP DP RH WIND PRES REMARKS EDENTON CLOUDY 45 33 63 CALM 30.10R ELIZABETH CITY CLOUDY 48 32 53 SW7 30.09R KITTY HAWK PTCLDY 42 32 68 CALM 30.08R MANTEO CLOUDY 42 31 64 N3 30.10R $$ NCZ045>047-081-094-103-104-182300- CENTRAL COAST CITY SKY/WX TMP DP RH WIND PRES REMARKS FRISCO MOCLDY 43 34 70 CALM 30.09S SWANQUARTER N/A 45 N/A N/A NW3 30.06R $$ NCZ095-097-098-100-101-182300- SOUTHERN COAST CITY SKY/WX TMP DP RH WIND PRES REMARKS BEAUFORT CLEAR 47 34 60 E3 30.08F CEDAR ISLAND N/A 45 N/A N/A E3 30.12S JACKSONVILLE CLEAR 50 32 50 CALM 30.08S PINEY ISLAND CLEAR 47 33 58 E5 30.09S WILMINGTON CLEAR 50 36 58 SE5 30.09R $$ NCZ011>013-027>030-043-044-078>080-089-090>093-098-182300- COASTAL PLAIN CITY SKY/WX TMP DP RH WIND PRES REMARKS AHOSKIE MOCLDY 43 30 59 CALM 30.10S CLINTON CLEAR 48 35 60 CALM 30.09F ELIZABETHTOWN CLEAR 51 32 48 CALM 30.09R GOLDSBORO MOCLDY 49 31 48 CALM 30.06F GREENVILLE CLOUDY 46 30 53 W3 30.11S HAVELOCK PTCLDY 47 32 56 NE6 30.09S KENANSVILLE CLEAR 46 32 57 CALM 30.09F KINSTON PTCLDY 48 32 53 CALM 30.09F NEW BERN CLEAR 49 33 54 CALM 30.09S RICHLANDS CLEAR 48 30 49 CALM 30.09S ROCKY MOUNT CLOUDY 47 33 58 CALM 30.09S WASHINGTON PTCLDY 46 29 51 CALM 30.10S WHITEVILLE CLEAR 52 29 41 CALM 30.08S $$ AMZ130-135-150-152-154-156-158-170-250-252-270-ANZ085-086-088-633-658-670-182300- MARINE OBSERVATIONS STATION/POSITION TIME TEMP WIND PRES WAVE SWELL AIR SEA DIR/SP/G HT/PER HT/PER (UTC) (F) (DEG/KT/KT) (MB) (FT/S) (FT/S) CHESAPEAKE LIGHT 2100 42 320/ 9/ 10 1019.3 64 E VA BEACH 2200 43 54 330/ 14/ 17 1018.1 4/ 6 2/ 9 DUCK 2200 44 48 320/ 2/ 3 1018.2 2 E DUCK 2200 48 N/A 4/ 6 10 NE DUCK 2200 52 N/A 4/ 7 OREGON INLET 2200 44 51 360/ 3/ 5 1018.7 13E OREGON INLT 2200 53 N/A 4/ 7 HATTERAS CG 2200 46 54 70/ 2/ 4 1019.2 DIAMOND BUOY 2200 48 1019.1 3/ 6 17 S OCRACOKE NOT AVBL CAPE LOOKOUT 2200 48 60/ 6/ 7 1018.5 BEAUFORT LAB 2200 49 53 80/ 4/ 7 1017.6 30 SE NEW RIVER 2200 51 60 70/ 4/ 8 1019.0 2/ 7 2/ 7 5 SE WRIGHTSVLE 2100 51 55 110/ 8/ 10 1018.5 225 S CAPE HAT 2057 68 73 330/ 4/ 6 1017.3 3/ 5 3/ 5 41 SE CHARLESTON 2200 61 73 280/ 4/ 6 1017.9 2/ 9 2/ 9 $$

USA.gov is the U.S. government's official web portal to all federal, state and local government web resources and services.